Location: Bieg
(49.3499°N, 10.3835°E)
Time: 00:14:31
(UTC+00:00)

IDEFIX/ARIANE 42P - Pass Details

Date: 23 May 2024
Orbit: 783 x 799 km, 98.5° (Epoch: 12 June)

Event Time Altitude Azimuth Distance (km) Brightness Sun altitude
Rises 01:17:05 0° 14° (NNE) 3,317 7.4 -14.9°
Reaches altitude 10° 01:19:26 10° 14° (NNE) 2,384 6.3 -14.8°
Maximum altitude 01:24:43 87° 288° (WNW) 808 2.6 -14.3°
Enters shadow 01:28:28 20° 198° (SSW) 1,786 3.8 -14.0°
